Location: Home
(42.5358°N, 72.7383°W)
Time: 13:17:33
(UTC-05:00)

Explorer 7 - Pass Details

Date: 05 December 2021
Orbit: 483 x 674 km, 50.3° (Epoch: 21 January)

Event Time Altitude Azimuth Distance (km) Brightness Sun altitude
Exits shadow 05:08:59 47° 232° (SW) 773 7.2 -20.8°
Maximum altitude 05:10:11 85° 147° (SSE) 579 6.8 -20.6°
Drops below altitude 10° 05:14:21 10° 60° (ENE) 1,820 10.1 -19.8°
Sets 05:16:30 0° 60° (ENE) 2,683 11.1 -19.4°
